timestamp,surface_pressure_avg,surface_temp_avg,battery_voltage,lat,long
2018-11-27 00:00:00+00:00,294.1597,4.69,12.97,47.84626,-54.09684
2018-11-27 00:10:00+00:00,299.618,4.63,12.89,47.84626,-54.09684
2018-11-27 00:20:00+00:00,316.9663,4.68,12.97,47.84626,-54.09684
2018-11-27 00:30:00+00:00,329.4264,4.9,12.97,47.84626,-54.09684
2018-11-27 00:40:00+00:00,330.2379,4.8,12.97,47.84626,-54.09684
2018-11-27 00:50:00+00:00,335.168,4.71,12.97,47.84626,-54.09684
2018-11-27 01:00:00+00:00,346.9163,4.89,12.97,47.84626,-54.09684
2018-11-27 01:10:00+00:00,348.9246,4.9,12.89,47.84626,-54.09684
2018-11-27 01:20:00+00:00,346.6046,4.8,12.97,47.84626,-54.09684
2018-11-27 01:30:00+00:00,353.3147,4.9,12.97,47.84626,-54.09684
2018-11-27 01:40:00+00:00,354.3763,4.9,12.97,47.84626,-54.09684
2018-11-27 01:50:00+00:00,348.5797,4.8,12.97,47.84626,-54.09684
2018-11-27 02:00:00+00:00,353.2596,4.79,12.89,47.84626,-54.09684
2018-11-27 02:10:00+00:00,359.0363,4.8,12.81,47.84626,-54.09684
2018-11-27 02:20:00+00:00,353.6613,4.7,12.97,47.84626,-54.09684
2018-11-27 02:30:00+00:00,348.1364,4.7,12.97,47.84626,-54.09684
2018-11-27 02:40:00+00:00,353.4745,4.7,12.97,47.84626,-54.09684
2018-11-27 02:50:00+00:00,351.5447,4.7,12.97,47.84626,-54.09684
2018-11-27 03:00:00+00:00,343.0546,4.7,12.89,47.84626,-54.09684
2018-11-27 03:10:00+00:00,342.5714,4.74,12.81,47.84626,-54.09684
2018-11-27 03:20:00+00:00,344.2863,4.77,12.89,47.84626,-54.09684
2018-11-27 03:30:00+00:00,338.4413,4.79,12.97,47.84626,-54.09684
2018-11-27 03:40:00+00:00,331.073,4.7,12.97,47.84626,-54.09684
2018-11-27 03:50:00+00:00,335.5997,4.7,12.97,47.84626,-54.09684
2018-11-27 04:00:00+00:00,335.3579,4.7,12.89,47.84626,-54.09684
2018-11-27 04:10:00+00:00,322.5513,4.7,12.81,47.84626,-54.09684
2018-11-27 04:20:00+00:00,318.8163,4.65,12.89,47.84626,-54.09684
2018-11-27 04:30:00+00:00,321.9497,4.67,12.89,47.84626,-54.09684
2018-11-27 04:40:00+00:00,312.963,4.65,12.97,47.84626,-54.09684
2018-11-27 04:50:00+00:00,296.928,4.64,12.97,47.84626,-54.09684
2018-11-27 05:00:00+00:00,294.628,4.66,12.89,47.84626,-54.09684
2018-11-27 05:10:00+00:00,290.6913,4.68,12.81,47.84626,-54.09684
2018-11-27 05:20:00+00:00,276.9164,4.69,12.89,47.84626,-54.09684
2018-11-27 05:30:00+00:00,267.1181,4.67,12.89,47.84626,-54.09684
2018-11-27 05:40:00+00:00,260.0814,4.7,12.97,47.84626,-54.09684
2018-11-27 05:50:00+00:00,249.5914,4.7,12.97,47.84626,-54.09684
2018-11-27 06:00:00+00:00,238.7714,4.69,12.89,47.84626,-54.09684
2018-11-27 06:10:00+00:00,234.2731,4.7,12.81,47.84626,-54.09684
2018-11-27 06:20:00+00:00,229.483,4.7,12.89,47.84626,-54.09684
2018-11-27 06:30:00+00:00,226.3481,4.7,12.89,47.84626,-54.09684
2018-11-27 06:40:00+00:00,226.8848,4.7,12.97,47.84626,-54.09684
2018-11-27 06:50:00+00:00,223.7431,4.7,12.97,47.84626,-54.09684
2018-11-27 07:00:00+00:00,218.1981,4.7,12.89,47.84626,-54.09684
2018-11-27 07:10:00+00:00,214.9781,4.7,12.81,47.84626,-54.09684
2018-11-27 07:20:00+00:00,214.5531,4.7,12.89,47.84626,-54.09684
2018-11-27 07:30:00+00:00,210.3748,4.7,12.89,47.84626,-54.09684
2018-11-27 07:40:00+00:00,205.4348,4.7,12.97,47.84626,-54.09684
2018-11-27 07:50:00+00:00,206.8465,4.7,12.97,47.84626,-54.09684
2018-11-27 08:00:00+00:00,206.6914,4.7,12.89,47.84626,-54.09684
2018-11-27 08:10:00+00:00,206.7581,4.7,12.81,47.84626,-54.09684
2018-11-27 08:20:00+00:00,214.5132,4.7,12.89,47.84626,-54.09684
2018-11-27 08:30:00+00:00,220.3548,4.7,12.89,47.84626,-54.09684
2018-11-27 08:40:00+00:00,220.5365,4.7,12.97,47.84626,-54.09684
2018-11-27 08:50:00+00:00,223.2164,4.7,12.97,47.84626,-54.09684
2018-11-27 09:00:00+00:00,228.3316,4.69,12.89,47.84626,-54.09684
2018-11-27 09:10:00+00:00,228.1547,4.69,12.81,47.84626,-54.09684
2018-11-27 09:20:00+00:00,227.7747,4.6,12.89,47.84626,-54.09684
2018-11-27 09:30:00+00:00,231.5398,4.6,12.89,47.84626,-54.09684
2018-11-27 09:40:00+00:00,237.5164,4.62,12.97,47.84626,-54.09684
2018-11-27 09:50:00+00:00,242.1631,4.6,12.97,47.84626,-54.09684
2018-11-27 10:00:00+00:00,249.2998,4.6,12.89,47.84626,-54.09684
2018-11-27 10:10:00+00:00,257.7614,4.66,12.81,47.84626,-54.09684
2018-11-27 10:20:00+00:00,267.108,4.68,12.89,47.84626,-54.09684
2018-11-27 10:30:00+00:00,273.9547,4.69,12.89,47.84626,-54.09684
2018-11-27 10:40:00+00:00,282.7997,4.68,12.97,47.84626,-54.09684
2018-11-27 10:50:00+00:00,289.063,4.69,12.97,47.84626,-54.09684
2018-11-27 11:00:00+00:00,289.5631,4.69,12.89,47.84626,-54.09684
2018-11-27 11:10:00+00:00,289.8196,4.69,12.81,47.84626,-54.09684
2018-11-27 11:20:00+00:00,298.6163,4.69,12.89,47.84626,-54.09684
2018-11-27 11:30:00+00:00,301.0696,4.69,12.97,47.84626,-54.09684
2018-11-27 11:40:00+00:00,299.9248,4.69,12.97,47.84626,-54.09684
2018-11-27 11:50:00+00:00,306.9012,4.7,12.97,47.84626,-54.09684
2018-11-27 12:00:00+00:00,319.4529,4.7,12.89,47.84626,-54.09684
2018-11-27 12:10:00+00:00,327.3162,4.7,12.81,47.84626,-54.09684
2018-11-27 12:20:00+00:00,331.5763,4.69,12.97,47.84626,-54.09684
2018-11-27 12:30:00+00:00,338.3979,4.67,12.97,47.84626,-54.09684
2018-11-27 12:40:00+00:00,350.2413,4.63,13.05,47.84626,-54.09684
2018-11-27 12:50:00+00:00,357.7362,4.62,13.05,47.84626,-54.09684
2018-11-27 13:00:00+00:00,363.1613,4.63,13.05,47.84626,-54.09684
2018-11-27 13:10:00+00:00,373.0513,4.64,12.97,47.84626,-54.09684
2018-11-27 13:20:00+00:00,382.5046,4.66,13.05,47.84626,-54.09684
2018-11-27 13:30:00+00:00,388.0079,4.68,13.05,47.84626,-54.09684
2018-11-27 13:40:00+00:00,383.4712,4.65,13.05,47.84626,-54.09684
2018-11-27 13:50:00+00:00,380.4329,4.67,13.13,47.84626,-54.09684
2018-11-27 14:00:00+00:00,387.0079,4.69,13.05,47.84626,-54.09684
2018-11-27 14:10:00+00:00,394.6661,4.7,13.05,47.84626,-54.09684
2018-11-27 14:20:00+00:00,391.5646,4.7,13.13,47.84626,-54.09684
2018-11-27 14:30:00+00:00,380.9562,4.69,13.21,47.84626,-54.09684
2018-11-27 14:40:00+00:00,388.1262,4.7,13.21,47.84626,-54.09684
2018-11-27 14:50:00+00:00,390.8646,4.7,13.29,47.84626,-54.09684
2018-11-27 15:00:00+00:00,375.6395,4.7,13.29,47.84626,-54.09684
2018-11-27 15:10:00+00:00,370.6763,4.7,13.21,47.84626,-54.09684
2018-11-27 15:20:00+00:00,385.9162,4.7,13.44,47.84626,-54.09684
2018-11-27 15:30:00+00:00,386.4396,4.7,13.68,47.84626,-54.09684
2018-11-27 15:40:00+00:00,369.5963,4.7,13.84,47.84626,-54.09684
2018-11-27 15:50:00+00:00,370.7146,4.71,14.48,47.84626,-54.09684
2018-11-27 16:00:00+00:00,383.5695,4.8,14.24,47.84626,-54.09684
2018-11-27 16:10:00+00:00,369.293,4.8,14.48,47.84626,-54.09684
2018-11-27 16:20:00+00:00,349.6862,4.7,14.72,47.84626,-54.09684
2018-11-27 16:30:00+00:00,357.0629,4.76,14.64,47.84626,-54.09684
2018-11-27 16:40:00+00:00,361.8796,4.8,14.8,47.84626,-54.09684
2018-11-27 16:50:00+00:00,341.2346,4.7,15.35,47.84626,-54.09684
2018-11-27 17:00:00+00:00,329.2246,4.7,14.8,47.84626,-54.09684
2018-11-27 17:10:00+00:00,334.6663,4.75,14.8,47.84626,-54.09684
2018-11-27 17:20:00+00:00,323.293,4.72,14.48,47.84626,-54.09684
2018-11-27 17:30:00+00:00,301.5464,4.72,14.8,47.84626,-54.09684
2018-11-27 17:40:00+00:00,296.1529,4.75,14.64,47.84626,-54.09684
2018-11-27 17:50:00+00:00,294.4514,4.76,14.48,47.84626,-54.09684
2018-11-27 18:00:00+00:00,276.6231,4.72,14.56,47.84626,-54.09684
2018-11-27 18:10:00+00:00,262.1697,4.74,14.32,47.84626,-54.09684
2018-11-27 18:20:00+00:00,255.0898,4.74,14.24,47.84626,-54.09684
2018-11-27 18:30:00+00:00,244.1714,4.74,14.08,47.84626,-54.09684
2018-11-27 18:40:00+00:00,229.8564,4.73,14.0,47.84626,-54.09684
2018-11-27 18:50:00+00:00,229.0814,4.72,14.0,47.84626,-54.09684
2018-11-27 19:00:00+00:00,232.4698,4.73,13.76,47.84626,-54.09684
2018-11-27 19:10:00+00:00,225.8764,4.8,13.6,47.84626,-54.09684
2018-11-27 19:20:00+00:00,215.0981,4.8,13.53,47.84626,-54.09684
2018-11-27 19:30:00+00:00,207.2015,4.8,13.44,47.84626,-54.09684
2018-11-27 19:40:00+00:00,199.8564,4.8,13.44,47.84626,-54.09684
2018-11-27 19:50:00+00:00,193.6898,4.72,13.37,47.84626,-54.09684
2018-11-27 20:00:00+00:00,190.9232,4.71,13.29,47.84626,-54.09684
2018-11-27 20:10:00+00:00,194.8165,4.7,13.21,47.84626,-54.09684
2018-11-27 20:20:00+00:00,199.1765,4.7,13.21,47.84626,-54.09684
2018-11-27 20:30:00+00:00,198.4231,4.7,13.21,47.84626,-54.09684
2018-11-27 20:40:00+00:00,197.6714,4.69,13.21,47.84626,-54.09684
2018-11-27 20:50:00+00:00,202.9581,4.7,13.21,47.84626,-54.09684
2018-11-27 21:00:00+00:00,210.9997,4.76,13.13,47.84626,-54.09684
2018-11-27 21:10:00+00:00,209.1031,4.8,13.05,47.84626,-54.09684
2018-11-27 21:20:00+00:00,205.5815,4.8,13.13,47.84626,-54.09684
2018-11-27 21:30:00+00:00,203.1648,4.75,13.13,47.84626,-54.09684
2018-11-27 21:40:00+00:00,206.6397,4.79,13.13,47.84626,-54.09684
2018-11-27 21:50:00+00:00,209.1231,4.8,13.13,47.84626,-54.09684
2018-11-27 22:00:00+00:00,206.8581,4.8,13.05,47.84626,-54.09684
2018-11-27 22:10:00+00:00,215.7598,4.8,12.97,47.84626,-54.09684
2018-11-27 22:20:00+00:00,224.2431,4.8,13.05,47.84626,-54.09684
2018-11-27 22:30:00+00:00,222.7764,4.75,13.05,47.84626,-54.09684
2018-11-27 22:40:00+00:00,227.4048,4.76,13.05,47.84626,-54.09684
2018-11-27 22:50:00+00:00,238.8081,4.78,13.13,47.84626,-54.09684
2018-11-27 23:00:00+00:00,245.6081,4.78,13.05,47.84626,-54.09684
2018-11-27 23:10:00+00:00,245.8131,4.7,12.97,47.84626,-54.09684
2018-11-27 23:20:00+00:00,243.5064,4.6,13.05,47.84626,-54.09684
2018-11-27 23:30:00+00:00,248.9581,4.6,13.05,47.84626,-54.09684
2018-11-27 23:40:00+00:00,253.8948,4.6,13.05,47.84626,-54.09684
2018-11-27 23:50:00+00:00,254.9698,4.67,13.05,47.84626,-54.09684
